TOURFACTS.DK  
Stats and Facts from Tour de France.

Tour de France 2019 starts in 320 days
  Riders   Stages   Teams   Summits   Yearly  


 
Search by year

After 2018 - Stage 21:
 15000 starters.
  5165 different riders.
  638 teams.
  2253 stages.
  456 restdays.
  442940.60 km.
  5684 abandonnees.


Top 3
GC
Geraint Thomas83:17:13
Tom Dumoulin83:19:04
Christopher Froome83:19:37
Climb
Julian Alaphilippe170 pt.
Warren Barguil91 pt.
Rafal Majka76 pt.
Sprint
Peter Sagan477 pt.
Alexander Kristoff246 pt.
Arnaud Démare203 pt.
Youth
Pierre-Roger Latou..83:39:26
Egan Bernal83:45:05
Guillaume Martin84:01:31
Facts from Tour de France 2016
  |   Stages.  |   Stage winners.  |   Days in yellow  |   Average speed.  |   Route.  |   Teams.  |   All riders.  |   Rookies.  |  

  |   Withdrawls.  |   GC.  |   Polka  |   Green  |   White  |   Summits. (In tour)  |   Miscellaneous.  |  

Stage 5 on 06 - 07 - 2016
         Owning:    Greg Van Avermaet      Greg Van Avermaet      Peter Sagan      Julian Alaphilippe  

Pick a stage:  1 2 3 4 5 6 7 8 9 10 11 12 13 14 15 16 17 18 19 20 21
  LimogesLe Lioran | Dist: 216.00 km.
Cat: 4Côte de Saint-Léonard-de-NoblatBELJasper Stuyven1 points 
Cat: 3Côte du Puy Saint-MaryBELThomas De Gendt2 points 
Cat: 3Col de NeronneBELThomas De Gendt2 points 
Cat: 2Col du Pas de Peyrol/Puy MarieBELThomas De Gendt5 points 
Cat: 2Col du PerthusPOLRafal Majka1 points 
Cat: 3Col de Font de CèreBELGreg Van Avermaet2 points 

Average speed for all riders in stage:  36,959 km./hr.
    Place:Name:Team:Time:Km/h:
1
BELGreg Van AvermaetUSABMC Racing Team05:31:36  +  00:00:00=39,083 
2
BELThomas De GendtBELLotto Soudal05:34:10  +  00:02:34=38,783 
3
POLRafal MajkaRUSTinkoff05:36:40  +  00:05:04=38,495 
44 ESPJoaquim RodriguezRUSTeam Katusha05:36:40  +  00:05:04=38,495 
55 ENGDaniel MartinBELEtixx - Quick Step05:36:43  +  00:05:07=38,489 
66 POLBartosz HuzarskiDEUBora-Argon 1805:36:43  +  00:05:07=38,489 
77 FRAJulian AlaphilippeBELEtixx - Quick Step05:36:43  +  00:05:07=38,489 
88 ENGAdam YatesAUSORICA BikeExchange05:36:43  +  00:05:07=38,489 
99 KENChristopher FroomeGBRSky Procycling05:36:43  +  00:05:07=38,489 
1010 USATejay Van GarderenUSABMC Racing Team05:36:43  +  00:05:07=38,489 
1111 FRAPierre RollandUSATeam Cannondale Drapac05:36:43  +  00:05:07=38,489 
1212 AUSRichie PorteUSABMC Racing Team05:36:43  +  00:05:07=38,489 
1313 FRARomain BardetFRAAg2r La Mondiale05:36:43  +  00:05:07=38,489 
1414 SUISébastien ReichenbachFRAFDJ05:36:43  +  00:05:07=38,489 
1515 COLNairo QuintanaESPMovistar Team05:36:43  +  00:05:07=38,489 
1616 NEDWilco KeldermanNLDTeam Lotto NL - Jumbo05:36:43  +  00:05:07=38,489 
1717 NEDBauke MollemaUSATrek - Segafredo05:36:43  +  00:05:07=38,489 
1818 ITAFabio AruKAZAstana Pro Team05:36:43  +  00:05:07=38,489 
1919 COLSergio Luis HenaoGBRSky Procycling05:36:43  +  00:05:07=38,489 
2020 FRAWarren BarguilDEUTeam Giant Alpecin05:36:43  +  00:05:07=38,489 
2121 FRAThibaut PinotFRAFDJ05:36:43  +  00:05:07=38,489 
2222 ESPAlejandro ValverdeESPMovistar Team05:36:43  +  00:05:07=38,489 
2323 RSALouis MeintjesITALampre-Merida05:36:43  +  00:05:07=38,489 
2424 BELJurgen Van Den BroeckRUSTeam Katusha05:36:52  +  00:05:16=38,472 
2525 CZERoman KreuzigerRUSTinkoff05:36:54  +  00:05:18=38,468 
2626 ESPMikel NieveGBRSky Procycling05:36:57  +  00:05:21=38,463 
2727 WALGeraint ThomasGBRSky Procycling05:36:59  +  00:05:23=38,459 
2828 UKRAndriy GrivkoKAZAstana Pro Team05:37:02  +  00:05:26=38,453 
2929 ESPDaniel MorenoESPMovistar Team05:37:12  +  00:05:36=38,434 
3030 ESPAlberto ContadorRUSTinkoff05:37:16  +  00:05:40=38,427 
3131 SUIMathias FrankCHEIAM Cycling05:37:24  +  00:05:48=38,411 
3232 BELSerge PauwelsZAFDimension Data05:37:39  +  00:06:03=38,383 
3333 FRACyril GautierFRAAg2r La Mondiale05:38:00  +  00:06:24=38,343 
3434 ITADamiano CarusoUSABMC Racing Team05:38:55  +  00:07:19=38,239 
3535 NEDStef ClementCHEIAM Cycling05:39:53  +  00:08:17=38,131 
3636 GEREmanuel BuchmannDEUBora-Argon 1805:39:53  +  00:08:17=38,131 
3737 ITADomenico PozzovivoFRAAg2r La Mondiale05:39:53  +  00:08:17=38,131 
3838 FRAFabrice JeandesbozFRADirect Energie05:39:53  +  00:08:17=38,131 
3939 URSTanel KangertKAZAstana Pro Team05:39:53  +  00:08:17=38,131 
4040 ITADiego RosaKAZAstana Pro Team05:39:53  +  00:08:17=38,131 
4141 ESPHaimar ZubeldiaUSATrek - Segafredo05:39:53  +  00:08:17=38,131 
4242 ARGEduardo SepulvedaFRAFortuneo - Vital Concept05:39:53  +  00:08:17=37,058 
4343 FRAAlexis VuillermozFRAAg2r La Mondiale05:41:54  +  00:10:18=37,906 
4444 LUXFränk SchleckUSATrek - Segafredo05:41:54  +  00:10:18=37,906 
4545 AUTPatrick KonradDEUBora-Argon 1805:41:54  +  00:10:18=37,906 
4646 SUISteve MorabitoFRAFDJ05:41:54  +  00:10:18=37,906 
4747 BELJan BakelantsFRAAg2r La Mondiale05:41:54  +  00:10:18=37,906 
4848 NEDTom-Jelte SlagterUSATeam Cannondale Drapac05:44:11  +  00:12:35=37,654 
4949 COLJarlinson Pantano GomezCHEIAM Cycling05:44:37  +  00:13:01=37,607 
5050 ESPLuis León SánchezKAZAstana Pro Team05:44:37  +  00:13:01=37,607 
5151 FRAFlorian VachonFRAFortuneo - Vital Concept05:44:41  +  00:13:05=37,600 
5252 ESPLuis Angel MateFRACofidis – Solutions Crédits05:44:37  +  00:13:01=37,607 
5353 DENChris Anker SørensenFRAFortuneo - Vital Concept05:44:37  +  00:13:01=37,607 
5454 FRAArnold JeannessonFRACofidis – Solutions Crédits05:44:37  +  00:13:01=37,607 
5555 FRAMickaël CherelFRAAg2r La Mondiale05:44:37  +  00:13:01=37,607 
5656 FRAJérémy RoyFRAFDJ05:45:12  +  00:13:36=37,543 
5757 AUTGeorg PreidlerDEUTeam Giant Alpecin05:45:21  +  00:13:45=37,527 
5858 USALawson CraddockUSATeam Cannondale Drapac05:45:21  +  00:13:45=37,527 
5959 USAPeter StetinaUSATrek - Segafredo05:45:21  +  00:13:45=37,527 
6060 PORRui CostaITALampre-Merida05:45:21  +  00:13:45=37,527 
6161 ESPAlberto LosadaRUSTeam Katusha05:45:21  +  00:13:45=37,527 
6262 RUSIlnur ZakarinRUSTeam Katusha05:45:21  +  00:13:45=37,527 
6363 SUIMartin ElmigerCHEIAM Cycling05:45:21  +  00:13:45=37,527 
6464 LUXBen GastauerFRAAg2r La Mondiale05:45:21  +  00:13:45=37,527 
6565 GERTony MartinBELEtixx - Quick Step05:45:21  +  00:13:45=37,527 
6666 ESPDaniel NavarroFRACofidis – Solutions Crédits05:45:21  +  00:13:45=37,527 
6767 ITAPaolo TiralongoKAZAstana Pro Team05:45:21  +  00:13:45=37,527 
6868 ITAVincenzo NibaliKAZAstana Pro Team05:45:21  +  00:13:45=37,527 
6969 NEDLaurens ten DamDEUTeam Giant Alpecin05:45:21  +  00:13:45=37,527 
7070 FRAAmaël MoinardUSABMC Racing Team05:45:21  +  00:13:45=37,527 
7171 RSADaryl ImpeyAUSORICA BikeExchange05:45:21  +  00:13:45=37,527 
7272 USAAlex HowesUSATeam Cannondale Drapac05:45:21  +  00:13:45=37,527 
7373 ETHTsgabu Gebremaryan GrmayITALampre-Merida05:45:21  +  00:13:45=37,527 
7474 HRVRobert KiserlovskiRUSTinkoff05:45:21  +  00:13:45=37,527 
7575 ESPMikel Landa MeanaGBRSky Procycling05:45:30  +  00:13:54=37,511 
7676 GERSimon GeschkeDEUTeam Giant Alpecin05:45:36  +  00:14:00=37,500 
7777 FRAThomas VoecklerFRADirect Energie05:46:34  +  00:14:58=37,395 
7878 NEDWout PoelsGBRSky Procycling05:49:35  +  00:17:59=37,073 
7979 NZLGeorge BennettNLDTeam Lotto NL - Jumbo05:49:35  +  00:17:59=37,073 
8080 FRARomain SicardFRADirect Energie05:50:38  +  00:19:02=36,962 
8181 FRAPierre-Luc PérichonFRAFortuneo - Vital Concept05:52:41  +  00:21:05=36,747 
8282 COLWinner AnaconaESPMovistar Team05:55:21  +  00:23:45=36,471 
8383 ESPJon Izaguirre InsaustiESPMovistar Team05:55:21  +  00:23:45=36,471 
8484 AUSAdam HansenBELLotto Soudal05:55:21  +  00:23:45=36,471 
8585 GERMarcus BurghardtUSABMC Racing Team05:55:21  +  00:23:45=36,471 
8686 BELOliver NaesenCHEIAM Cycling05:55:21  +  00:23:45=36,471 
8787 SUIMichael SchärUSABMC Racing Team05:55:21  +  00:23:45=36,471 
8888 AUSRohan DennisUSABMC Racing Team05:55:21  +  00:23:45=36,471 
8989 NEDBert-Jan LindemanNLDTeam Lotto NL - Jumbo05:55:21  +  00:23:45=36,471 
9090 FRAArthur VichotFRAFDJ05:55:21  +  00:23:45=36,471 
9191 FRAAnthony RouxFRAFDJ05:55:21  +  00:23:45=36,471 
9292 SUIJakob FuglsangKAZAstana Pro Team05:55:21  +  00:23:45=36,471 
9393 FRABrice FeilluFRAFortuneo - Vital Concept05:55:21  +  00:23:45=36,471 
9494 FRANicolas EdetFRACofidis – Solutions Crédits05:55:21  +  00:23:45=36,471 
9595 CZEJan BártaDEUBora-Argon 1805:55:21  +  00:23:45=36,471 
9696 BLRVasil KiryienkaGBRSky Procycling05:55:21  +  00:23:45=36,471 
9797 NEDRoy CurversDEUTeam Giant Alpecin05:55:21  +  00:23:45=36,471 
9898 NEDTom DumoulinDEUTeam Giant Alpecin05:55:21  +  00:23:45=36,471 
9999 ESPGorka Izaguirre InsaustiESPMovistar Team05:55:21  +  00:23:45=36,471 
100100 GERPaul VossDEUBora-Argon 1805:55:21  +  00:23:45=36,471 
101101 FRAMatthieu LadagnousFRAFDJ05:55:21  +  00:23:45=36,471 
102102 HRVKristijan DurasekITALampre-Merida05:55:21  +  00:23:45=36,471 
103103 SLOLuka PibernikITALampre-Merida05:55:21  +  00:23:45=36,471 
104104 ESPJesus HerradaESPMovistar Team05:55:21  +  00:23:45=36,471 
105105 IRLChristopher Juul JensenAUSORICA BikeExchange05:55:21  +  00:23:45=36,471 
106106 KAZAlexey LutsenkoKAZAstana Pro Team05:55:21  +  00:23:45=36,471 
107107 FRAJérôme CousinFRACofidis – Solutions Crédits05:55:21  +  00:23:45=36,471 
108108 ESPRubén PlazaAUSORICA BikeExchange05:55:21  +  00:23:45=36,471 
109109 FRASylvain ChavanelFRADirect Energie05:55:21  +  00:23:45=36,471 
110110 SVKPeter SaganRUSTinkoff05:55:21  +  00:23:45=36,471 
111111 NEDDylan Van BaarleUSATeam Cannondale Drapac05:56:50  +  00:25:14=36,319 
112112 ERIDaniel TeklehaimanotZAFDimension Data05:56:50  +  00:25:14=36,319 
113113 ESPMarkel IrizarUSATrek - Segafredo05:56:50  +  00:25:14=36,319 
114114 PORNelson OliveiraESPMovistar Team05:56:50  +  00:25:14=36,319 
115115 ESPÁngel ViciosoRUSTeam Katusha05:56:50  +  00:25:14=36,319 
116116 ESPImanol ErvitiESPMovistar Team05:56:50  +  00:25:14=36,319 
117117 AUSSimon GerransAUSORICA BikeExchange05:56:50  +  00:25:14=36,319 
118118 BELJulien VermoteBELEtixx - Quick Step05:56:50  +  00:25:14=36,319 
119119 GERPaul MartensNLDTeam Lotto NL - Jumbo05:56:50  +  00:25:14=36,319 
120120 AUSMathew HaymanAUSORICA BikeExchange05:56:50  +  00:25:14=36,319 
121121 USABrent BookwalterUSABMC Racing Team05:56:50  +  00:25:14=36,319 
122122 AUSLuke DurbridgeAUSORICA BikeExchange05:56:50  +  00:25:14=36,319 
123123 FRACédric PineauFRAFDJ05:56:50  +  00:25:14=36,319 
124124 FRAJérôme CoppelCHEIAM Cycling05:56:50  +  00:25:14=36,319 
125125 FRAArmindo FonsecaFRAFortuneo - Vital Concept05:56:50  +  00:25:14=36,319 
126126 DENMatti BreschelUSATeam Cannondale Drapac05:56:50  +  00:25:14=36,319 
127127 SUIGregory RastUSATrek - Segafredo05:56:50  +  00:25:14=36,319 
128128 SUIReto HollensteinCHEIAM Cycling05:56:50  +  00:25:14=36,319 
129129 FRAAnthony DelaplaceFRAFortuneo - Vital Concept05:56:50  +  00:25:14=36,319 
130130 CANAntoine DuchesneFRADirect Energie05:56:50  +  00:25:14=36,319 
131131 ITAJacopo GuarnieriRUSTeam Katusha05:56:50  +  00:25:14=36,319 
132132 ITAMatteo BonoITALampre-Merida05:56:50  +  00:25:14=36,319 
133133 ITACesare BenedettiDEUBora-Argon 1805:56:50  +  00:25:14=36,319 
134134 SUIFabian CancellaraUSATrek - Segafredo05:56:50  +  00:25:14=36,319 
135135 FRATony GallopinBELLotto Soudal05:56:50  +  00:25:14=36,319 
136136 FRAWilliam BonnetFRAFDJ05:56:50  +  00:25:14=36,319 
137137 BELMaarten WynantsNLDTeam Lotto NL - Jumbo05:56:50  +  00:25:14=36,319 
138138 FRAGeoffrey SoupeFRACofidis – Solutions Crédits05:56:50  +  00:25:14=36,319 
139139 GERRobert WagnerNLDTeam Lotto NL - Jumbo05:56:50  +  00:25:14=36,319 
140140 SLOKristjan KorenUSATeam Cannondale Drapac05:56:50  +  00:25:14=36,319 
141141 ITAFabio SabatiniBELEtixx - Quick Step05:56:50  +  00:25:14=36,319 
142142 ITAMatteo TosattoRUSTinkoff05:56:50  +  00:25:14=36,319 
143143 CZEPetr VakocBELEtixx - Quick Step05:56:50  +  00:25:14=36,319 
144144 RSAReinardt Janse Van RensburgZAFDimension Data05:56:50  +  00:25:14=36,319 
145145 NOREdvald Boasson HagenZAFDimension Data05:56:50  +  00:25:14=36,319 
146146 NORVegard BreenFRAFortuneo - Vital Concept05:56:50  +  00:25:14=36,319 
147147 GERJohn DegenkolbDEUTeam Giant Alpecin05:56:50  +  00:25:14=36,319 
148148 GERMarcel KittelBELEtixx - Quick Step05:56:50  +  00:25:14=36,319 
149149 GERAndré GreipelBELLotto Soudal05:56:50  +  00:25:14=36,319 
150150 FRASamuel DumoulinFRAAg2r La Mondiale05:56:50  +  00:25:14=36,319 
151151 BELIljo KeisseBELEtixx - Quick Step05:56:50  +  00:25:14=36,319 
152152 URSRamunas NavardauskasUSATeam Cannondale Drapac05:56:50  +  00:25:14=36,319 
153153 FRA Alexis GougeardFRAAg2r La Mondiale05:56:50  +  00:25:14=36,319 
154154 SUIMichael AlbasiniAUSORICA BikeExchange05:56:50  +  00:25:14=36,319 
155155 GERAndreas SchillingerDEUBora-Argon 1805:56:50  +  00:25:14=36,319 
156156 FRAAdrien PetitFRADirect Energie05:56:50  +  00:25:14=36,319 
157157 NEDTimo RoosenNLDTeam Lotto NL - Jumbo05:56:50  +  00:25:14=36,319 
158158 POLMaciej BodnarRUSTinkoff05:56:50  +  00:25:14=36,319 
159159 ENGIan StannardGBRSky Procycling05:56:50  +  00:25:14=36,319 
160160 ENGStephen CummingsZAFDimension Data05:56:50  +  00:25:14=36,319 
161161 NZLGregory HendersonBELLotto Soudal05:56:50  +  00:25:14=36,319 
162162 AUSMichael MatthewsAUSORICA BikeExchange05:56:50  +  00:25:14=36,319 
163163 BELJürgen RoelandtsBELLotto Soudal05:56:50  +  00:25:14=36,319 
164164 DENMichael ValgrenRUSTinkoff05:56:50  +  00:25:14=36,319 
165165 BELJasper StuyvenUSATrek - Segafredo05:56:50  +  00:25:14=36,319 
166166 BELJens DebusschereBELLotto Soudal05:56:50  +  00:25:14=36,319 
167167 BELEdward TheunsUSATrek - Segafredo05:56:50  +  00:25:14=36,319 
168168 BELSep VanmarckeNLDTeam Lotto NL - Jumbo05:56:50  +  00:25:14=36,319 
169169 NEDSebastian LangeveldUSATeam Cannondale Drapac05:56:50  +  00:25:14=36,319 
170170 BRAMaximilano RichezeBELEtixx - Quick Step05:56:50  +  00:25:14=36,319 
171171 JPNYukiya ArashiroITALampre-Merida05:56:50  +  00:25:14=36,319 
172172 NORSondre Holst EngerCHEIAM Cycling05:56:50  +  00:25:14=36,319 
173173 WALLuke RoweGBRSky Procycling05:57:20  +  00:25:44=36,269 
174174 FRAChristophe LaporteFRACofidis – Solutions Crédits05:57:35  +  00:25:59=36,243 
175175 FRACyril LemoineFRACofidis – Solutions Crédits05:57:35  +  00:25:59=36,243 
176176 NEDAlbert TimmerDEUTeam Giant Alpecin05:57:37  +  00:26:01=36,240 
177177 ITAOscar GattoRUSTinkoff05:59:34  +  00:27:58=36,043 
178178 FRABryan CoquardFRADirect Energie06:00:10  +  00:28:34=35,983 
179179 AUSMark RenshawZAFDimension Data06:00:10  +  00:28:34=35,983 
180180 AUTBernhard EiselZAFDimension Data06:00:10  +  00:28:34=35,983 
181181 NEDRamon SinkeldamDEUTeam Giant Alpecin06:00:10  +  00:28:34=35,983 
182182 IOMMark CavendishZAFDimension Data06:00:10  +  00:28:34=35,983 
183183 NEDDylan GroenewegenNLDTeam Lotto NL - Jumbo06:00:10  +  00:28:34=35,983 
184184 ENGDaniel McLayFRAFortuneo - Vital Concept06:00:10  +  00:28:34=35,983 
185185 SLOBorut BozicFRACofidis – Solutions Crédits06:00:10  +  00:28:34=35,983 
186186 SLOJan PolancITALampre-Merida06:00:10  +  00:28:34=35,983 
187187 ERINatnael Teweldemedhin BerhaneZAFDimension Data06:00:10  +  00:28:34=35,983 
188188 FRAYohann GèneFRADirect Energie06:00:10  +  00:28:34=35,983 
189189 GERMarcel SiebergBELLotto Soudal06:00:10  +  00:28:34=35,983 
190190 DENLars BakBELLotto Soudal06:00:10  +  00:28:34=35,983 
191191 NORAlexander KristoffRUSTeam Katusha06:00:10  +  00:28:34=35,983 
192192 ITADavide CimolaiITALampre-Merida06:00:10  +  00:28:34=35,983 
193193 BELSam BennettDEUBora-Argon 1806:00:10  +  00:28:34=35,983 
194194 AUSLeigh HowardCHEIAM Cycling06:00:10  +  00:28:34=35,983 
195195 AUTMarco HallerRUSTeam Katusha06:00:10  +  00:28:34=35,983 
196196 NZLShane ArchboldDEUBora-Argon 1806:00:10  +  00:28:34=35,983 
197197 FRAAngelo TulikFRADirect Energie06:00:10  +  00:28:34=35,983 
198198 DENMichael MørkøvRUSTeam Katusha06:04:50  +  00:33:14=35,523 

Todays birthdays.

1878  Jean Novo
1883  Jules Chabas
1890  Ange Aubry
1893  Roger Marye
1913  Paul Maye
1914  Lucien Vlaemynck
1915  Alphonse Antoine
1932  Rolf Graf
1953  Julio Rubiano
1959  Jos Haex
1959  Gerard Veldscholten
1963  Pablo Moreno
1964  Juan Castillo
1977  Iban Mayo
1994  Fernando Gaviria